Time,TemperatureF,DewpointF,PressureIn,WindDirection,WindDirectionDegrees,WindSpeedMPH,WindSpeedGustMPH,Humidity,HourlyPrecipIn,Conditions,Clouds,dailyrainin,SoftwareType,DateUTC
2013-09-13 00:15:00,66.0,-99.9,-100.00,North,-999,-999.0,-999.0,-999,0.10,,,0.72,,2013-09-13 04:15:00,
2013-09-13 00:25:00,66.0,-99.9,-100.00,North,-999,-999.0,-999.0,-999,0.10,,,0.72,,2013-09-13 04:25:00,
2013-09-13 00:30:00,66.0,-99.9,-100.00,North,-999,-999.0,-999.0,-999,0.08,,,0.80,,2013-09-13 04:30:00,
2013-09-13 01:13:00,66.0,-99.9,-100.00,North,-999,-999.0,-999.0,-999,0.08,,,0.80,,2013-09-13 05:13:00,
2013-09-13 01:23:00,66.0,-99.9,-100.00,North,-999,-999.0,-999.0,-999,0.08,,,0.80,,2013-09-13 05:23:00,
2013-09-13 01:30:00,66.0,-99.9,-100.00,North,-999,-999.0,-999.0,-999,0.01,,,0.81,,2013-09-13 05:30:00,
2013-09-13 02:12:00,66.0,-99.9,-100.00,North,-999,-999.0,-999.0,-999,0.01,,,0.81,,2013-09-13 06:12:00,
2013-09-13 02:23:00,66.0,-99.9,-100.00,North,-999,-999.0,-999.0,-999,0.01,,,0.81,,2013-09-13 06:23:00,
2013-09-13 02:30:00,65.0,-99.9,-100.00,North,-999,-999.0,-999.0,-999,0.02,,,0.83,,2013-09-13 06:30:00,
2013-09-13 03:11:00,65.0,-99.9,-100.00,North,-999,-999.0,-999.0,-999,0.02,,,0.83,,2013-09-13 07:11:00,
2013-09-13 03:22:00,65.0,-99.9,-100.00,North,-999,-999.0,-999.0,-999,0.02,,,0.83,,2013-09-13 07:22:00,
2013-09-13 03:30:00,65.0,-99.9,-100.00,North,-999,-999.0,-999.0,-999,0.02,,,0.85,,2013-09-13 07:30:00,
2013-09-13 04:12:00,65.0,-99.9,-100.00,North,-999,-999.0,-999.0,-999,0.02,,,0.85,,2013-09-13 08:12:00,
2013-09-13 04:22:00,65.0,-99.9,-100.00,North,-999,-999.0,-999.0,-999,0.02,,,0.85,,2013-09-13 08:22:00,
2013-09-13 04:30:00,65.0,-99.9,-100.00,North,-999,-999.0,-999.0,-999,0.00,,,0.85,,2013-09-13 08:30:00,
2013-09-13 05:12:00,65.0,-99.9,-100.00,North,-999,-999.0,-999.0,-999,0.00,,,0.85,,2013-09-13 09:12:00,
2013-09-13 05:22:00,65.0,-99.9,-100.00,North,-999,-999.0,-999.0,-999,0.00,,,0.85,,2013-09-13 09:22:00,
2013-09-13 05:30:00,65.0,-99.9,-100.00,North,-999,-999.0,-999.0,-999,0.02,,,0.87,,2013-09-13 09:30:00,
2013-09-13 06:13:00,65.0,-99.9,-100.00,North,-999,-999.0,-999.0,-999,0.02,,,0.87,,2013-09-13 10:13:00,
2013-09-13 06:23:00,65.0,-99.9,-100.00,North,-999,-999.0,-999.0,-999,0.02,,,0.87,,2013-09-13 10:23:00,
2013-09-13 06:30:00,65.0,-99.9,-100.00,North,-999,-999.0,-999.0,-999,0.00,,,0.87,,2013-09-13 10:30:00,
2013-09-13 07:12:00,65.0,-99.9,-100.00,North,-999,-999.0,-999.0,-999,0.00,,,0.87,,2013-09-13 11:12:00,
2013-09-13 07:22:00,65.0,-99.9,-100.00,North,-999,-999.0,-999.0,-999,0.00,,,0.87,,2013-09-13 11:22:00,
2013-09-13 07:30:00,65.0,-99.9,-100.00,North,-999,-999.0,-999.0,-999,0.01,,,0.88,,2013-09-13 11:30:00,
2013-09-13 08:12:00,65.0,-99.9,-100.00,North,-999,-999.0,-999.0,-999,0.01,,,0.88,,2013-09-13 12:12:00,
2013-09-13 08:22:00,65.0,-99.9,-100.00,North,-999,-999.0,-999.0,-999,0.01,,,0.88,,2013-09-13 12:22:00,
2013-09-13 08:30:00,65.0,-99.9,-100.00,North,-999,-999.0,-999.0,-999,0.00,,,0.83,,2013-09-13 12:30:00,
2013-09-13 09:11:00,65.0,-99.9,-100.00,North,-999,-999.0,-999.0,-999,0.00,,,0.83,,2013-09-13 13:11:00,
2013-09-13 09:22:00,65.0,-99.9,-100.00,North,-999,-999.0,-999.0,-999,0.00,,,0.83,,2013-09-13 13:22:00,
2013-09-13 09:30:00,67.0,-99.9,-100.00,North,-999,-999.0,-999.0,-999,0.00,,,0.83,,2013-09-13 13:30:00,
2013-09-13 10:11:00,67.0,-99.9,-100.00,North,-999,-999.0,-999.0,-999,0.00,,,0.83,,2013-09-13 14:11:00,
2013-09-13 10:22:00,67.0,-99.9,-100.00,North,-999,-999.0,-999.0,-999,0.00,,,0.83,,2013-09-13 14:22:00,
2013-09-13 10:30:00,68.0,-99.9,-100.00,North,-999,-999.0,-999.0,-999,0.00,,,0.75,,2013-09-13 14:30:00,
2013-09-13 10:52:00,68.0,-99.9,-100.00,North,-999,-999.0,-999.0,-999,0.00,,,0.75,,2013-09-13 14:52:00,
2013-09-13 11:11:00,68.0,-99.9,-100.00,North,-999,-999.0,-999.0,-999,0.00,,,0.75,,2013-09-13 15:11:00,
2013-09-13 11:22:00,68.0,-99.9,-100.00,North,-999,-999.0,-999.0,-999,0.00,,,0.75,,2013-09-13 15:22:00,
2013-09-13 11:30:00,70.0,-99.9,-100.00,North,-999,-999.0,-999.0,-999,0.00,,,0.71,,2013-09-13 15:30:00,
2013-09-13 12:12:00,70.0,-99.9,-100.00,North,-999,-999.0,-999.0,-999,0.00,,,0.71,,2013-09-13 16:12:00,
2013-09-13 12:24:00,70.0,-99.9,-100.00,North,-999,-999.0,-999.0,-999,0.00,,,0.71,,2013-09-13 16:24:00,
2013-09-13 12:30:00,72.0,-99.9,-100.00,North,-999,-999.0,-999.0,-999,0.00,,,0.71,,2013-09-13 16:30:00,
2013-09-13 13:13:00,72.0,-99.9,-100.00,North,-999,-999.0,-999.0,-999,0.00,,,0.71,,2013-09-13 17:13:00,
2013-09-13 13:24:00,72.0,-99.9,-100.00,North,-999,-999.0,-999.0,-999,0.00,,,0.71,,2013-09-13 17:24:00,
2013-09-13 13:30:00,70.0,-99.9,-100.00,North,-999,-999.0,-999.0,-999,0.00,,,0.71,,2013-09-13 17:30:00,
2013-09-13 14:12:00,70.0,-99.9,-100.00,North,-999,-999.0,-999.0,-999,0.00,,,0.71,,2013-09-13 18:12:00,
2013-09-13 14:23:00,70.0,-99.9,-100.00,North,-999,-999.0,-999.0,-999,0.00,,,0.71,,2013-09-13 18:23:00,
2013-09-13 14:30:00,65.0,-99.9,-100.00,North,-999,-999.0,-999.0,-999,0.00,,,0.71,,2013-09-13 18:30:00,
2013-09-13 15:11:00,65.0,-99.9,-100.00,North,-999,-999.0,-999.0,-999,0.00,,,0.71,,2013-09-13 19:11:00,
2013-09-13 15:22:00,65.0,-99.9,-100.00,North,-999,-999.0,-999.0,-999,0.00,,,0.71,,2013-09-13 19:22:00,
2013-09-13 15:30:00,63.0,-99.9,-100.00,North,-999,-999.0,-999.0,-999,0.00,,,0.64,,2013-09-13 19:30:00,
2013-09-13 16:12:00,63.0,-99.9,-100.00,North,-999,-999.0,-999.0,-999,0.00,,,0.64,,2013-09-13 20:12:00,
2013-09-13 16:22:00,63.0,-99.9,-100.00,North,-999,-999.0,-999.0,-999,0.00,,,0.64,,2013-09-13 20:22:00,
2013-09-13 16:30:00,64.0,-99.9,-100.00,North,-999,-999.0,-999.0,-999,0.00,,,0.63,,2013-09-13 20:30:00,
2013-09-13 17:12:00,64.0,-99.9,-100.00,North,-999,-999.0,-999.0,-999,0.00,,,0.63,,2013-09-13 21:12:00,
2013-09-13 17:22:00,64.0,-99.9,-100.00,North,-999,-999.0,-999.0,-999,0.00,,,0.63,,2013-09-13 21:22:00,
2013-09-13 17:30:00,63.0,-99.9,-100.00,North,-999,-999.0,-999.0,-999,0.00,,,0.52,,2013-09-13 21:30:00,
2013-09-13 18:13:00,63.0,-99.9,-100.00,North,-999,-999.0,-999.0,-999,0.00,,,0.52,,2013-09-13 22:13:00,
2013-09-13 18:24:00,63.0,-99.9,-100.00,North,-999,-999.0,-999.0,-999,0.00,,,0.52,,2013-09-13 22:24:00,
2013-09-13 18:30:00,62.0,-99.9,-100.00,North,-999,-999.0,-999.0,-999,0.00,,,0.40,,2013-09-13 22:30:00,
2013-09-13 19:12:00,62.0,-99.9,-100.00,North,-999,-999.0,-999.0,-999,0.00,,,0.40,,2013-09-13 23:12:00,
2013-09-13 19:22:00,62.0,-99.9,-100.00,North,-999,-999.0,-999.0,-999,0.00,,,0.40,,2013-09-13 23:22:00,
2013-09-13 19:30:00,59.0,-99.9,-100.00,North,-999,-999.0,-999.0,-999,0.00,,,0.38,,2013-09-13 23:30:00,
2013-09-13 20:12:00,59.0,-99.9,-100.00,North,-999,-999.0,-999.0,-999,0.00,,,0.38,,2013-09-14 00:12:00,
2013-09-13 20:22:00,59.0,-99.9,-100.00,North,-999,-999.0,-999.0,-999,0.00,,,0.38,,2013-09-14 00:22:00,
2013-09-13 20:30:00,58.0,-99.9,-100.00,North,-999,-999.0,-999.0,-999,0.00,,,0.32,,2013-09-14 00:30:00,
2013-09-13 21:12:00,58.0,-99.9,-100.00,North,-999,-999.0,-999.0,-999,0.00,,,0.32,,2013-09-14 01:12:00,
2013-09-13 21:22:00,58.0,-99.9,-100.00,North,-999,-999.0,-999.0,-999,0.00,,,0.32,,2013-09-14 01:22:00,
2013-09-13 21:30:00,58.0,-99.9,-100.00,North,-999,-999.0,-999.0,-999,0.00,,,0.26,,2013-09-14 01:30:00,
2013-09-13 22:12:00,58.0,-99.9,-100.00,North,-999,-999.0,-999.0,-999,0.00,,,0.26,,2013-09-14 02:12:00,
2013-09-13 22:22:00,58.0,-99.9,-100.00,North,-999,-999.0,-999.0,-999,0.00,,,0.26,,2013-09-14 02:22:00,
2013-09-13 22:30:00,57.0,-99.9,-100.00,North,-999,-999.0,-999.0,-999,0.00,,,0.26,,2013-09-14 02:30:00,
2013-09-13 23:12:00,57.0,-99.9,-100.00,North,-999,-999.0,-999.0,-999,0.00,,,0.26,,2013-09-14 03:12:00,
2013-09-13 23:22:00,57.0,-99.9,-100.00,North,-999,-999.0,-999.0,-999,0.00,,,0.26,,2013-09-14 03:22:00,
2013-09-13 23:30:00,57.0,-99.9,-100.00,North,-999,-999.0,-999.0,-999,0.00,,,0.16,,2013-09-14 03:30:00,